sat.trackr.live / text

‹ back to catalog

UNKNOWN

NORAD 82961

UNKNOWN UNKNOWN UNKNOWN

§ Identity

Operator
Country
Launch date
Launch site
Launch vehicle
Mass (kg)
RCS (m²)

External: N2YO · Heavens-Above

§ Orbital elements

Epoch: 2026-09-17T20:22:39.898560Z

Period
108.34 min
Inclination
99.6939°
Eccentricity
0.0370363
Mean motion
13.29159192 rev/d
Perigee alt
871.1 km
Apogee alt
1,428.7 km
Semi-major
7,528.1 km
B*
4.6577e-3
RAAN
45.3406°
Arg perigee
64.2415°
Mean anomaly
299.6443°
Rev number
59,272

§ Raw data

UNKNOWN1 82961U          26260.84907290  .00003093  00000+0  46577-2 0  99962 82961  99.6939  45.3406 0370363  64.2415 299.6443 13.29159192592723

JSON: /api/v1/satellites/82961 · /tle

For live sub-satellite position, see the globe view (requires WebGL).

§ Visibility from observer

Set your observer location to see the next 7 days of passes ≥ 10°. The values pass through the URL so the page stays shareable.

No JS? Fill the form by hand. The geolocation button needs JavaScript.